"Pseudo-MPEC" for A10Scue

Created 2023 Feb 7 0:22:02 UT using Find_Orb

Click here for an explanation of pseudo-MPECs

 
 Astrometry: 
     A10Scue  C2022 11 166sm8(P/U?mjbQ8I\__9bVtKT$K'\sFMm9?uCN*cjwSAstrometryF51
     A10Scue  C2022 11 16,)kU?+nXmJ,X0D_G=,t0E9_CAj,1A_q$*Mx5AV\Fc!$MydtpH'o;F51
     A10Scue  C2022 11 16@8\0xG,]?dBFbWA?ng\Il/HV^d`EOfh8vf:\$3GFY/WN%BdN4tvDF51
     A10Scue* C2023 01 212aJr`yNLAAIb[_@H,@[Q5DWWc+k](iIC9A)mJVhkYPpN%j/uBDsyM22
     A10Scue  C2023 01 21V\*!sfkB/^dmQ4ItY\J_Tu3YevTat(`PdkR^WCA'D4327-ks1PM`M22
     A10Scue  C2023 01 21=a9oghwNbsJ*mKOK9]P#O#hY+)wl/jaPX9XQUQ!U6I[;R`UHD+KMM22
     A10Scue  C2023 01 21/m,:v]`_N!6`:H7oT9Jjb`+:F`bDFgq/4X#1;cJCd:*YcA(=Z--vM22
     A10Scue |C2023 01 23mlj9-R^Ss/b.ges](wF80%!Rb2o%cbqSU$`m1Y#MADln'tl.A^_J807
     A10Scue |C2023 01 23bW]W6saS)f9vQMS%HxqqYF=gA!`A:0^qGoaGCHUL4nH@uVyD.pog807
     A10Scue |C2023 01 23p2/73I3'3qR[@9\ca75P`8p[HoYV?Nw6:`MMc:.w1`XRynoa`+7F807
     A10Scue 1C2023 01 23wa[EVoUOCRe8mmeV-tSs4e%4ZtutYf@VMUU]Jd2Hqx`dE%t,SN%hW87
     A10Scue 1C2023 01 23m^'YQ!l=u#DQX'UC9#:k=XjwRwPZVrN;NUN%W@vRC@]VG9S;pm,4W87
     A10Scue 1C2023 01 23%w1Wt;8*4@EbuMB,n9k9vG:5U,GbtL_+^3Fvq4=wkD?x877^Pg+kW87
     A10Scue 1C2023 01 23#,c-b]Z!BhBn`WdWTU!M-ndxRof]:CC:,Q#CeXe]G-+-dor$?Ef3Q62
     A10Scue 1C2023 01 230d?Y*#sM33+6VJoA-pOlWm;uf@ne`(u$G./$'\Y;pd+iHPJQC'D^Q62
     A10Scue |C2023 01 24VdXKPS%CT4,3;BlVl0bsyA*ArMp1Y5D*eb7D_EXkXNh$^ZiSBqtL807
     A10Scue |C2023 01 248Fy:qes,/WKKnredacted;oe:(0LVx+nYto2pfaCX-vLX;FdJ#iP807
     A10Scue |C2023 01 24L9ofA%lQXwykKn#B4ela?^W?#[vl1H_Zh:51r21c^Y@Zn9E:?`3W807
     A10Scue (C2023 01 25=,Zy)'d+fENG_c21OwNgWHG%aFsZa-8$9LWvSv\tu0u4M-EV_MxpW88
     A10Scue (C2023 01 25uEu7FHq-/ce#6CyCs[=nEl(LT']9T[/)Z^@,l3pUSskvr5I.,=-yW88
     A10Scue KC2023 01 25E4-qFZR/c2m*mSvI+YvQ/I@X1LO%N,2T#24/ARvh\iv2IEq)vHlEX03
     A10Scue KC2023 01 25h%Vo.tN][;k^MnIXD7n33Z\3+?cT2.vkdky8t6s5(X.e@JWh7Ds1X03
     A10Scue KC2023 01 25-9t;%(8pl)o_W,Xlhj/vJNpN+8e*:_;!Rj=WLUM?8vXp\6J[%+TJX03
     A10Scue KC2023 01 25Z9bywV^92j]OG/^N(P%`aw=fXBf=P7QDSQA0i4BZqclickK['c0/X03
     A10Scue aC2023 01 2595Jnv!13-)P8t(\MY#783\/8j!NTo=$cm%N0l59BMg$/n7g`:%MvQ62
     A10Scue aC2023 01 25hfn3ABg69ES-$'=p=0lDwKTEbu+TYSBEG/@DPW]udjSl-#cqp-nAQ62
     A10Scue aC2023 01 25;n]6y`DXmAW:Px^'/vVsfd?Ng\y7jH2_pP;0tt#;QqF)0M8,]fL!Q62
     A10Scue KC2023 01 26+ihZ2HGqq!Y[v-8k9/7B?[KGRW,RFt,[`.\XLSY`4/m!,5l)/14gX93
     A10Scue KC2023 01 26?fDKsEY`BrHo,.];VcpbRckaN/v;N_T5*Tod:k39O?H24$O_@(HfX93
     A10Scue KC2023 01 26CvOskX6P2%[fNyZ?GYU@'BU_q:YSEQlOJ]-:g?@_ns4\Am7aN3pgX93
     A10Scue KC2023 01 26.17833210 48 30.552-54 02 22.50   ~1Q57 18.3 GXNEOCPY00
     A10Scue KC2023 01 26.18488810 48 31.080-54 02 27.29   ~1Q57 16.3 GXNEOCPY00
     A10Scue 3C2023 01 26_dF8ZFiun=(.+!N-`wcY1ETX7p,JfM/+sesEln9/PnQPkM?%8?YpW88
     A10Scue 3C2023 01 26VOVZphere)j!WFfPk2y_BOa6[7lL?fQ1+1(a:8A0Be1y1ROWdN`XW88
     A10Scue 2C2023 01 26#w9nCeg/qy:\[UvsQaoprn($x9iUO^2Q$=nghG\J(7FUB-K9Z?u^K93
     A10Scue 2C2023 01 26q4'xC16Ukh[o_)]'P?Q20QhS99lM2g1^Um\x$LSonh?-L4Vuei_qK93
     A10Scue 2C2023 01 26180$^]j%HNZ;d2s7?C_bbm4'j9G3xxk()em/3AC),VVwuy\7a)K%K93
     A10Scue "C2023 01 27eprf]K*\pf^yQ+.MR!3bX07WFOsPxoJK[.v?DF+\E6hTT;`0NHh8W88
     A10Scue "C2023 01 27_E84rhiK]mvrUL7yrB\=2JKg?eQG3?9MQ;7@^bWR8*-dA-6C-PGYW88
     A10Scue dC2023 01 27.58652810 50 24.616-54 20 12.89   ~1RGb 18.4 GVNEOCPQ62
     A10Scue dC2023 01 27.58735010 50 24.696-54 20 13.09   ~1RGb 18.4 GVNEOCPQ62
     A10Scue 3C2023 01 28qfDHg2A9`WTQQ9mck+mRI49_,\l])%.I$166ROlN]C%P6hAu5NDJW88
     A10Scue 3C2023 01 28g]0J*G-/VWggGWs,flDcKt:pOODtS115;eforw%uTFU$6sd?.ek]W88
     A10Scue KC2023 01 28?_SI4QwB.`,$%)]!])=l-Sfr/_ZOP=H5Jq$!nFrW`$[?-r@j!^6cI47
     A10Scue KC2023 01 28kV5Uo*l3,(7$,9L,e]Fievj`@explanationlxV/i3DDO9(A5#mcI47
     A10Scue KC2023 01 281sIvWIeui;@O[fM7up$?oSXwO9fR1YpBS?r0i7_2RYa3Eh$@^)_SI47
     A10Scue KC2023 01 29\r+e1qB+h8-jP';bYu#F@kJ;PS]jrhU]:MYE;Q7#A9-HTJ[)'[$sX31
     A10Scue KC2023 01 29,?#9?:]l)m)C@cB6nYm6LT8ZXtd`/h3o-6/PFL39V0ZsRJgeqW7KX31
     A10Scue  C2023 01 31pr*D6jSXWI?G2yQXLer\O,/(0PG'.9RX16!Z/Y72x^DQ6W#U)9*5M28
     A10Scue  C2023 01 31HfyS4;M2s8IOm)^LAK$YIUI3$/L/xOOw(cWCjjp\mEOv]!q.Y+XiM28
     A10Scue  C2023 01 31T83H(vWKR9i/\YSRFQEw5!HwZS/#.H%AJb=J?BY1fok?a@S`=BaeM28
     A10Scue  C2023 02 02@vsOy[QY!As`;\s'HCrBE3bRMYu5xo1qxdRPC.+d[1%QnRXpuP8@X02
     A10Scue  C2023 02 02=TsDgHYf=D7;/DkRRQq4bveVNC'$M?xDtKhas'6F?,/cQbo(Y]k/X02
     A10Scue  C2023 02 02!7y(;:$PeGk9Is)Il5Y/gAXIT:crpTrRpxTd#*)JPBMIvo;U$\P6X02
     A10Scue "C2023 02 04,^R!KJVwWLO1jRpsVFp)IvZrkiP(@f4X?hZDm6uJJ5`W_Y3_)q.%W88
     A10Scue "C2023 02 04+qtVynCgM/a:VQiG9p-pU@^;J/#O:^4nS)kt0a*qU:HDAo^k.BFoW88
     A10Scue KC2023 02 05FUsvo1P^%*gKXQ2bHh#Jfx?$Cu3Cq39ifn8wxvV\=';n:#p\Z@H2X31
     A10Scue KC2023 02 05_M/4:S,Ml$p2r//J_e-#mHKa%Bw:bELL66@iBH5FGr'0Cgu*DBRoX31

Station data:
(807) Cerro Tololo Observatory, La Serena  (S30.169133 W70.805900)  Chile.
   Observer R. Holmes. 0.61-m f/6.5 astrograph + CCD.
(F51) Pan-STARRS 1, Haleakala  (N20.707234 W156.255910)  US/Hawaii.
   Observers J. Bulger, T. Lowe, A. Schultz, M. Willman. Measurers K.
   Chambers, S. Chastel, T. de Boer, L. Denneau, J. Fairlamb, H. Flewelling,
   M. Huber, C.-C. Lin, E. Magnier, Y. Ramanjooloo, R. Wainscoat, R. Weryk.
   1.8-m Ritchey-Chrétien + CCD.
(I47) Pierre Auger Observatory, Malargüe  (S35.495440 W69.449700)  Argentina.
    Observer M. Mašek. 0.3-m f/6.8 reflector + CCD.
(K93) Sutherland-LCOGT C  (S32.380667 E20.810110)  South Africa.  Observer R.
   Miles. 1.0-m f/8.0 Ritchey-Chrétien + CCD.
(M22) ATLAS South Africa, Sutherland  (S32.380156 E20.810590)  South Africa.
(M28) Lesedi Telescope-SAAO Observatory, Sutherland  (S32.379790 E20.810640)
   South Africa.
(Q62) iTelescope Observatory, Siding Spring  (S31.273286 E149.064420)
   Australia/NSW.  Observer H. Sato. 0.51-m f/6.8 astrograph + CCD + f/4.5
   focal reducer0.43-m f/6.8 astrograph + CCD + focal reducer0.43-m f/6.8
   astrograph + CCD0.10-m f/5 astrograph + CCD0.127-m f/5.6 refractor +
   CCD0.50-m f/6.8 reflector + CCD0.30-m f/9 reflector + CCD.
(W87) Cerro Tololo-LCO C  (S30.167454 W70.804680)  Chile.  Observers T.
   Lister, J. Chatelain, E. Gomez, S. Greenstreet. Measurer T. Lister. 1.0-m
   f/8.0 Ritchey-Chrétien + CCD.
(W88) Slooh.com Chile Observatory, La Dehesa  (S33.269126 W70.534300)  Chile.
    Observers B. Lütkenhöner, K. Dankov, J. Maes. Measurers B. Lutkenhoner,
   G. Gašparović, Y. Chen, G. Y. Gasparovic, M. Kumrucu-Lohmiller, N. Paul,
   R. W. Anderson. 0.43-m f/6.8 Corrected Dall- Kirkham + CCD0.35-m f/11.0
   Schmidt-Cassegrain + CCD.
(X02) Telescope Live, El Sauce  (S30.470666 W70.764830)  Chile.  Observers E.
   Guido, M. Rocchetto, E. Bryssinck, M. Fulle, G. Milani, C. Nassef, G.
   Savini, A. Valvasori. Measurer E. Guido. 0.6-m f/6.5 astrograph + CCD.
(X03) Observatoire SADR, Poroto  (S30.533914 W70.796390)  Chile.  Observers
   J. L. Virlichie, P. Traverse. 0.35-m f/4.7 Newtonian reflector + CCD.
(X31) Galileo Galilei Observatory, Oro Verde  (S31.823020 W60.520660)
   Argentina.  Observer C. Fornari. 0.40-m f/8 Ritchey-Chrétien + CCD.
(X93) Munhoz Observatory  (S22.628912 W46.395300)  Brazil.
(Y00) SONEAR Observatory, Oliveira  (S20.715080 W44.784960)  Brazil.
   Observers C. Jacques, E. Pimentel, J. Barros. Measurer C. Jacques. 0.45-m
   f/2.9 astrograph + CCD.

Orbital elements:  A10Scue
   Perihelion 2023 Mar 10.49341 +/- 0.0187 TT = 11:50:30 (JD 2460013.99341)
Epoch 2023 Feb  5.0 TT = JDT 2459980.5   Earth MOID: 0.8644   Sa: 0.5349
M 359.99774247 +/- 0.00056          (J2000 ecliptic)             AutoNEOCP
n   0.00006740 +/- 1.69e-5          Peri.  317.39510 +/- 0.019
a 597.980730 +/- 99.6               Node   218.12353 +/- 0.010
e   0.9970848 +/- 0.000486          Incl.   40.77080 +/- 0.0018
P  14622                   H 14.97  G  0.15   U  5.4
q 1.74319950 +/- 0.00031    Q 1194.21826 +/- 200
From 58 observations 2022 Nov. 16-2023 Feb. 5; mean residual 0".35
Residuals in arcseconds: 
221116 F51  .28+  .40-    230125 X03  .01+  .02+    230127 Q62  .45+  .79+    
221116 F51  .33-  .33+    230125 X03  .17+  .33+    230128 W88  .28+  .52-    
221116 F51  .01-  .02+    230125 X03  .03-  .04+    230128 W88  .03+  .38-    
230121 M22  .21-  .06+    230125 X03  .60+  .00     230128 I47  .36-  .17-    
230121 M22  .40-  .08-    230125 Q62  .21+  .26-    230128 I47  .31-  .85+    
230121 M22  1.3-  .07+    230125 Q62  .03-  .15-    230128 I47  .01-  .02+    
230121 M22  .36-  .59+    230125 Q62  .02-  .12-    230129 X31  .01+  .15+    
230123 807  .21-  .14-    230126 X93  .49-  .17-    230129 X31  .54+  .40-    
230123 807  .32-  .07-    230126 X93  .33+  .22+    230131 M28  1.1-  .10+    
230123 807  .21+  .11-    230126 X93  .35+  .04-    230131 M28  .74-  .18+    
230123 W87  .25+  .09-    230126 Y00  .11-  .03-    230131 M28  .84-  .36+    
230123 W87  .12-  .32-    230126 Y00  .09+  .35+    230202 X02  .60+  .29+    
230123 W87  .21+  .24+    230126 W88  .61-  .04-    230202 X02  .62+  .05-    
230123 Q62  .10+  .39-    230126 W88  .37-  .28+    230202 X02  .17+  .25-    
230123 Q62  .16-  .10-    230126 K93  .29+  .07-    230204 W88  .21+  .03-    
230124 807  .03-  .05+    230126 K93  .26+  .04-    230204 W88  .33+  .10+    
230124 807  .15+  .14-    230126 K93  .32+  .11-    230205 X31  .97-  .02-    
230124 807  .06+  .23-    230127 W88  .25+  .02+    230205 X31  .01+  .71-    
230125 W88  .49+  .21-    230127 W88  .31+  .03+    
230125 W88  .55+  .06-    230127 Q62  .31+  .36+    

Ephemerides (geocentric):
Date (UTC) HH   RA             Dec           delta  r     elong  mag " sig PA
---- --------  ------------   ------------  ------ ------ -----  --- --------
2023 02 07 00  11 03 55.765   -56 03 25.65  1.2588 1.7905 105.1 18.1 .128  55
2023 02 07 01  11 03 58.894   -56 03 43.78  1.2585 1.7904 105.2 18.1 .128  55
2023 02 07 02  11 04 02.023   -56 04 01.85  1.2581 1.7903 105.2 18.1 .128  55
